CAPE
0 0 0 0 0 0 0 0 0 0 0 0 0 0 0 2 0 0 0 0 116 325 192 224 257 296 132 2 0 0 0 0 0 0 0 0 0 0 0 0 0 0 0 0
0 0 0 0 0 0 0 0 0 0 0 0 0 0 0 38 17 0 0 0 85 376 266 308 301 234 73 0 0 0 0 0 0 0 0 0 0 0 0 0 0 0 0 0
0 0 0 0 0 0 0 0 0 0 0 0 0 0 0 1 19 55 0 0 377 413 360 380 349 260 26 0 0 0 0 0 0 0 0 0 0 0 0 0 0 0 0 0
0 0 0 0 0 0 0 0 0 0 0 0 0 0 0 2 11 23 0 33 402 445 424 437 398 227 0 0 0 0 0 0 0 0 0 0 0 0 0 0 0 0 0 0
0 0 0 0 0 0 0 0 0 0 0 0 0 0 0 4 60 59 15 37 464 521 535 444 204 38 0 0 0 0 0 0 0 0 0 0 0 0 0 0 0 0 0 0
0 0 0 0 0 0 0 0 0 0 0 0 0 0 0 0 0 0 0 11 200 280 298 226 70 0 0 0 0 0 0 0 0 0 0 0 0 0 0 0 0 0 0 0
0 0 0 0 0 0 0 0 0 0 0 9 0 0 0 0 0 0 0 7 21 5 3 0 0 0 0 0 0 0 0 0 0 0 0 0 0 0 0 0 0 0 0 0
0 0 2 0 0 0 0 0 0 0 2 56 66 13 2 0 0 0 0 0 0 0 0 0 0 0 0 0 0 0 0 0 0 0 0 0 0 0 0 0 0 0 0 0
0 0 0 0 0 0 0 0 0 0 0 0 28 1 0 0 0 0 0 0 0 0 0 0 0 0 0 0 0 0 0 0 0 0 0 0 0 0 0 0 0 0 0 0
0 0 0 0 0 0 0 0 0 9 1 0 47 8 1 0 0 0 0 0 0 0 0 0 0 0 0 0 0 0 0 0 0 0 0 0 0 0 0 0 0 0 0 6
0 0 4 35 11 0 0 0 1 0 1 0 7 16 0 0 0 0 0 0 0 0 0 0 0 0 0 0 0 0 0 0 0 0 0 0 0 0 0 0 0 0 0 0
0 0 0 0 0 0 7 31 37 5 0 4 2 1 0 0 0 0 0 0 0 0 0 0 0 0 0 0 0 0 0 0 0 0 0 0 0 0 0 0 0 0 0 0
0 0 0 0 6 1 0 0 68 0 0 0 0 6 0 0 0 0 0 0 0 0 0 0 0 0 0 0 0 0 0 0 3 4 1 0 0 0 0 0 2 0 0 0
0 0 0 0 0 0 0 3 11 29 1 0 4 11 0 0 0 0 0 0 0 0 0 0 0 0 0 0 0 0 0 0 2 1 0 0 0 0 0 0 0 0 2 1
0 0 0 0 0 0 0 0 3 5 0 2 0 6 0 0 0 0 0 0 0 0 0 0 0 0 0 0 0 0 0 0 0 0 0 0 0 0 0 0 0 4 2 7
0 0 0 0 0 0 0 0 18 0 0 2 1 1 0 0 0 0 0 0 0 0 0 0 0 0 0 0 0 0 0 0 0 0 0 0 0 0 0 0 2 1 0 3
0 0 0 0 0 0 0 0 6 0 0 0 0 0 0 0 0 0 0 0 0 0 0 0 0 0 0 0 0 0 0 0 0 0 0 0 0 7 1 3 9 6 13 0
0 0 0 0 0 0 1 0 0 0 0 0 0 0 0 0 0 0 0 0 0 0 0 0 0 0 0 0 0 0 0 0 0 0 0 3 14 11 12 5 1 3 3 2
0 0 0 0 0 0 7 0 0 0 0 0 0 0 0 0 0 0 0 0 0 0 0 0 0 0 0 0 0 0 0 0 2 3 2 7 1 15 2 5 4 2 0 0
0 0 0 0 3 2 12 5 16 1 0 0 0 0 0 0 0 0 0 0 0 0 0 0 0 0 0 0 0 0 0 1 2 9 6 14 13 9 3 0 0 6 0 0
6 10 2 5 8 22 0 0 1 0 0 0 0 0 0 0 0 0 0 0 0 0 0 0 0 0 0 0 0 1 1 9 7 12 35 23 18 7 3 0 0 0 0 4
23 12 6 10 21 5 0 0 6 0 0 0 0 0 0 0 0 0 0 0 0 0 0 0 0 0 0 3 1 0 0 1 16 19 24 16 20 11 0 0 0 0 0 0
21 30 11 0 0 0 0 1 0 0 0 0 0 0 0 0 0 0 0 0 0 0 0 0 0 0 5 0 3 0 0 0 3 2 11 7 15 0 0 0 0 0 0 0
28 0 0 2 0 6 4 0 0 0 0 0 0 0 0 0 0 0 0 0 0 0 0 0 0 2 2 5 2 8 6 0 0 0 0 0 0 0 0 0 0 0 0 0
31 0 0 0 1 3 0 0 0 0 0 0 0 0 0 0 0 0 1 0 0 0 0 0 1 3 1 2 9 31 0 0 0 0 1 7 10 2 0 0 0 0 0 0
0 0 0 0 0 0 0 0 0 0 0 0 0 0 0 0 0 1 0 0 0 0 0 0 2 1 5 25 26 31 2 0 0 1 1 5 2 0 1 2 0 0 0 0
CIN
-0 -0 -0 -0 -0 -0 -0 -0 -0 -0 -0 -0 -0 -0 -0 -105 -0 -0 -0 -0 -48 -108 -212 -258 -254 -298 -343 -245 -0 -0 -0 -0 -0 -0 -0 -0 -0 -0 -0 -0 -0 -0 -0 -0
-0 -0 -0 -0 -0 -0 -0 -0 -0 -0 -0 -0 -0 -0 -0 -65 -81 -5 -0 -0 -89 -187 -214 -231 -236 -264 -320 -0 -0 -0 -0 -0 -0 -0 -0 -0 -0 -0 -0 -0 -0 -0 -0 -0
-0 -0 -0 -0 -0 -0 -0 -0 -0 -0 -0 -0 -0 -0 -0 -50 -54 -60 -0 -29 -136 -164 -217 -210 -195 -211 -251 -0 -0 -0 -0 -0 -0 -0 -0 -0 -0 -0 -0 -0 -0 -0 -0 -0
-0 -0 -0 -0 -0 -0 -0 -0 -0 -0 -0 -0 -0 -0 -0 -20 -60 -67 -96 -98 -148 -163 -165 -167 -150 -182 -0 -0 -0 -0 -0 -0 -0 -0 -0 -0 -0 -0 -0 -0 -0 -0 -0 -0
-0 -0 -0 -0 -0 -0 -0 -0 -0 -0 -0 -0 -0 -0 -0 -167 -135 -175 -92 -54 -71 -85 -95 -140 -194 -230 -0 -0 -0 -0 -0 -0 -0 -0 -0 -0 -0 -0 -0 -0 -0 -0 -0 -0
-0 -0 -0 -0 -0 -0 -0 -0 -0 -0 -0 -0 -0 -0 -0 -0 -0 -0 -0 -19 -21 -91 -126 -143 -146 -0 -0 -0 -0 -0 -0 -0 -0 -0 -0 -0 -0 -0 -0 -0 -0 -0 -0 -0
-0 -0 -0 -0 -0 -0 -0 -0 -0 -0 -0 -7 -0 -0 -0 -0 -0 -0 -0 -161 -82 -113 -119 -0 -0 -0 -0 -0 -0 -0 -0 -0 -0 -0 -0 -0 -0 -0 -0 -0 -0 -0 -0 -0
-0 -0 -14 -0 -0 -0 -0 -0 -0 -0 -34 -38 -40 -28 -20 -0 -0 -0 -0 -0 -0 -0 -0 -0 -0 -0 -0 -0 -0 -0 -0 -0 -0 -0 -0 -0 -0 -0 -0 -0 -0 -0 -0 -0
-0 -0 -0 -0 -0 -0 -0 -0 -0 -0 -0 -0 -25 -22 -0 -0 -0 -0 -0 -0 -0 -0 -0 -0 -0 -0 -0 -0 -0 -0 -0 -0 -0 -0 -0 -0 -0 -0 -0 -0 -0 -0 -0 -0
-0 -0 -0 -0 -0 -0 -0 -0 -0 -26 -4 -0 -41 -70 -6 -0 -0 -0 -0 -0 -0 -0 -0 -0 -0 -0 -0 -0 -0 -0 -0 -0 -0 -0 -0 -0 -0 -0 -0 -0 -0 -0 -1 -2
-0 -0 -63 -37 -27 -0 -0 -0 -40 -0 -10 -2 -21 -46 -0 -0 -0 -0 -0 -0 -0 -0 -0 -0 -0 -0 -0 -0 -0 -0 -0 -0 -0 -0 -0 -0 -0 -0 -0 -0 -0 -0 -0 -0
-0 -0 -0 -0 -2 -21 -66 -38 -10 -6 -0 -44 -33 -5 -0 -0 -0 -0 -0 -0 -0 -0 -0 -0 -0 -0 -0 -0 -0 -0 -0 -0 -0 -0 -0 -0 -0 -0 -0 -0 -0 -0 -0 -0
-0 -0 -0 -0 -24 -13 -0 -2 -8 -0 -0 -0 -0 -24 -0 -0 -0 -0 -0 -0 -0 -0 -0 -0 -0 -0 -0 -0 -0 -0 -0 -0 -3 -12 -29 -0 -0 -0 -0 -0 -61 -0 -0 -0
-0 -0 -0 -0 -0 -0 -0 -8 -51 -4 -9 -2 -16 -26 -45 -0 -0 -0 -0 -0 -0 -0 -0 -0 -0 -0 -0 -0 -0 -0 -0 -0 -10 -1 -11 -0 -0 -0 -0 -0 -2 -0 -38 -4
-0 -0 -0 -0 -0 -0 -0 -1 -3 -4 -0 -19 -2 -53 -0 -0 -0 -0 -0 -0 -0 -0 -0 -0 -0 -0 -0 -0 -0 -0 -0 -0 -0 -0 -0 -0 -0 -0 -0 -0 -0 -37 -27 -14
-0 -0 -0 -0 -0 -0 -0 -3 -12 -0 -0 -9 -67 -8 -0 -0 -0 -0 -0 -0 -0 -0 -0 -0 -0 -0 -0 -0 -0 -0 -0 -0 -0 -0 -0 -0 -0 -0 -0 -0 -23 -10 -0 -14
-0 -0 -0 -0 -0 -0 -0 -2 -10 -0 -0 -0 -0 -0 -0 -0 -0 -0 -0 -0 -0 -0 -0 -0 -0 -0 -0 -0 -0 -0 -0 -0 -0 -0 -0 -9 -5 -16 -14 -23 -14 -20 -15 -0
-0 -0 -0 -0 -0 -0 -2 -0 -0 -0 -0 -0 -0 -0 -0 -0 -0 -0 -0 -0 -0 -0 -0 -0 -0 -0 -1 -0 -0 -0 -0 -0 -0 -0 -0 -5 -11 -14 -19 -12 -9 -25 -23 -26
-0 -0 -0 -0 -0 -0 -19 -0 -0 -0 -0 -0 -0 -0 -0 -0 -0 -0 -0 -0 -0 -0 -0 -0 -0 -0 -0 -1 -0 -0 -0 -0 -16 -13 -13 -17 -7 -19 -16 -22 -21 -22 -0 -11
-0 -0 -0 -0 -0 -0 -3 -35 -9 -4 -0 -0 -0 -0 -0 -0 -0 -0 -0 -0 -0 -0 -0 -0 -0 -0 -0 -0 -0 -0 -10 -11 -23 -19 -18 -11 -8 -12 -20 -0 -0 -20 -0 -0
-13 -18 -3 -4 -8 -7 -0 -0 -1 -0 -0 -0 -0 -0 -0 -0 -0 -0 -0 -0 -0 -0 -0 -0 -0 -0 -0 -0 -0 -12 -8 -13 -16 -11 -12 -9 -13 -22 -17 -0 -0 -0 -0 -12
-26 -24 -6 -21 -7 -9 -0 -0 -0 -0 -0 -0 -0 -0 -0 -0 -0 -0 -0 -0 -0 -0 -0 -0 -0 -0 -0 -27 -10 -0 -1 -8 -20 -21 -21 -17 -15 -24 -0 -0 -0 -0 -0 -3
-13 -23 -24 -0 -0 -0 -0 -3 -0 -0 -0 -0 -0 -0 -0 -0 -0 -0 -0 -0 -0 -0 -0 -0 -0 -0 -16 -5 -18 -0 -7 -0 -33 -44 -25 -18 -15 -0 -0 -0 -0 -0 -0 -0
-17 -2 -0 -14 -0 -13 -22 -0 -0 -0 -0 -0 -0 -0 -0 -0 -0 -0 -0 -0 -0 -0 -0 -0 -0 -12 -11 -9 -12 -15 -13 -0 -0 -0 -0 -1 -0 -0 -0 -0 -0 -0 -0 -0
-10 -0 -0 -0 -18 -21 -0 -0 -0 -0 -0 -0 -0 -0 -0 -0 -1 -0 -0 -0 -0 -0 -0 -0 -5 -9 -6 -16 -8 -20 -0 -16 -0 -0 -2 -15 -23 -20 -0 -0 -0 -0 -0 -0
-0 -0 -0 -0 -0 -0 -0 -0 -0 -0 -0 -0 -0 -0 -6 -0 -0 -5 -0 -0 -0 -0 -0 -0 -23 -20 -21 -11 -7 -18 -27 -0 -0 -7 -11 -10 -13 -0 -12 -7 -0 -0 -0 -0
Wind_Speed
9 8 4 4 3 2 13 24 28 21 10 5 8 12 6 7 8 7 4 6 2 3 3 3 4 6 8 12 15 17 18 21 23 26 27 30 34 37 39 39 45 46 44 46
7 3 1 22 19 22 23 27 28 22 15 16 16 15 21 5 7 8 7 7 5 4 2 2 3 5 7 10 13 15 17 19 21 24 26 29 33 35 37 43 43 45 47 45
21 17 19 22 23 21 21 23 22 25 14 13 15 19 16 22 17 9 7 13 3 4 3 2 3 5 8 11 12 15 17 18 19 21 25 30 32 35 40 42 44 43 42 42
19 16 19 22 20 21 20 23 25 26 27 23 23 34 29 36 35 12 14 12 3 5 3 2 3 7 9 12 11 14 16 17 19 22 27 32 34 40 39 43 43 42 42 45
18 24 23 23 22 22 21 26 28 29 33 34 33 26 26 33 26 22 22 13 4 4 3 4 7 11 13 12 13 13 16 19 20 24 29 32 36 40 40 42 42 44 45 47
17 14 15 18 24 26 26 29 31 31 30 26 20 27 28 35 23 17 26 10 4 7 9 10 12 12 11 17 17 16 19 21 23 26 30 36 38 41 42 43 46 47 48 42
28 28 13 17 23 24 28 21 25 26 24 24 19 23 21 20 22 20 16 9 15 14 14 14 14 17 18 21 21 21 23 25 29 32 33 34 36 38 42 44 46 48 43 39
23 23 22 18 17 20 27 22 19 23 27 28 21 21 17 18 18 19 21 17 16 16 17 20 20 20 21 22 21 24 29 33 32 32 33 35 37 40 42 43 45 42 39 38
21 19 30 32 12 20 21 22 20 22 25 26 15 18 22 24 22 19 17 18 20 21 22 22 23 26 27 27 30 32 34 32 32 32 35 37 39 42 44 45 41 37 38 34
23 26 21 17 19 13 20 15 22 21 24 25 23 20 18 15 18 20 21 21 22 24 24 25 27 28 29 31 33 35 34 35 34 35 37 38 41 42 43 40 41 38 34 31
27 22 26 22 18 21 24 20 21 20 17 22 26 19 14 15 19 21 22 22 24 25 26 25 27 30 31 33 35 36 38 38 39 38 39 40 41 42 40 38 36 34 33 32
25 21 22 22 26 17 17 20 21 19 20 20 21 23 16 15 18 19 21 22 24 24 26 28 30 32 35 38 40 42 43 44 41 39 39 38 38 37 36 33 31 31 31 31
24 20 23 24 17 21 22 27 24 18 19 19 22 17 18 19 21 24 23 23 24 27 30 31 34 38 39 41 43 45 45 44 40 39 38 36 34 32 30 30 30 30 28 27
20 19 18 20 21 28 25 20 27 21 19 19 16 23 24 23 19 20 24 24 27 30 32 34 39 40 42 44 45 46 44 40 37 34 33 32 29 28 28 30 30 29 26 25
18 21 21 24 29 28 29 31 29 21 22 19 17 18 14 19 21 22 25 28 32 33 36 38 40 42 44 45 42 42 37 34 34 32 31 29 28 29 30 28 31 30 26 25
23 24 25 25 27 30 34 31 27 27 27 19 16 17 15 18 21 25 27 29 32 33 36 38 41 45 44 42 38 36 32 32 30 29 28 28 27 28 29 29 29 28 27 27
25 27 29 27 28 31 27 23 23 20 24 20 17 19 24 25 24 26 27 30 33 36 37 41 43 43 40 37 33 32 31 29 28 28 27 28 28 30 29 28 28 28 27 26
20 22 24 27 28 25 19 24 21 18 22 22 21 24 24 23 22 28 28 30 32 34 38 40 41 38 33 31 29 28 28 27 27 28 29 27 28 30 31 29 27 28 28 27
14 17 23 23 22 22 24 21 20 20 22 25 25 26 27 27 21 30 29 30 32 33 36 37 33 30 29 27 26 25 27 28 28 28 28 29 30 28 30 29 27 27 28 26
17 13 17 22 25 25 22 23 21 19 21 25 27 27 29 30 32 30 28 30 31 33 35 34 29 25 25 26 25 27 29 28 28 28 28 28 29 26 28 27 27 26 27 27
16 18 16 20 20 18 26 26 26 17 20 25 22 25 28 30 27 26 29 31 33 35 34 28 25 24 24 24 26 28 27 28 27 27 25 28 27 27 27 26 26 28 28 26
20 22 21 24 22 22 20 21 22 20 22 24 26 27 29 29 30 31 32 33 35 33 27 24 23 24 24 23 21 24 27 28 29 28 29 29 25 26 26 26 27 27 26 27
20 20 21 20 19 13 12 17 20 21 23 26 26 28 29 32 33 33 32 31 30 26 23 22 22 24 24 26 27 25 25 26 27 28 28 27 26 24 24 25 27 27 26 28
18 19 18 17 15 15 15 20 22 23 25 25 27 29 31 33 33 32 28 27 26 23 21 21 22 25 27 29 29 26 29 26 24 22 26 25 25 24 23 24 26 27 28 28
15 15 16 15 15 17 20 20 21 24 24 26 28 30 31 30 31 28 26 23 22 22 22 21 23 27 28 23 25 22 23 26 29 27 17 23 22 21 22 24 25 27 27 27
17 17 18 17 16 15 17 20 21 22 24 26 28 28 29 28 26 25 23 22 22 23 21 23 23 25 22 23 25 27 25 28 27 27 22 22 20 20 20 23 24 10 8 10
Wind_Direction
33 14 64 85 171 275 335 329 331 345 359 337 309 319 311 307 315 321 328 325 308 183 137 99 65 35 11 360 357 357 351 345 344 345 345 344 342 341 340 342 337 335 336 334
0 354 222 339 339 339 332 320 319 322 317 315 327 335 322 320 285 291 295 303 325 152 130 96 36 25 2 354 355 353 351 345 345 346 346 345 342 342 341 338 339 337 335 335
333 343 353 339 335 335 336 336 333 324 338 332 330 322 325 318 312 273 304 328 74 153 137 88 26 2 353 345 350 346 344 345 343 344 342 339 339 341 338 338 338 340 339 337
346 0 356 346 343 342 340 339 328 315 318 323 331 313 319 317 315 303 310 328 38 124 110 79 39 358 358 353 353 343 341 342 341 342 339 336 337 337 338 337 338 338 339 336
341 341 344 348 356 342 328 333 326 316 307 309 311 319 325 326 325 322 311 320 1 69 12 18 1 356 348 352 342 340 346 345 343 341 340 339 336 336 337 337 338 337 336 335
356 2 356 353 343 335 331 321 319 315 315 315 329 325 320 312 325 312 262 310 23 28 20 16 2 1 357 347 345 354 348 349 343 339 338 334 334 336 338 338 337 336 336 339
333 338 22 7 347 340 341 339 335 332 332 332 333 327 333 352 17 357 342 340 28 24 23 16 15 358 358 355 354 349 346 341 337 333 337 337 341 341 338 337 337 337 339 341
343 346 3 13 9 358 332 343 340 335 324 327 340 330 341 7 12 13 17 23 18 14 360 353 359 355 350 344 344 340 335 334 336 335 339 340 339 337 337 336 336 338 340 340
340 341 325 329 355 354 347 339 342 335 328 327 354 337 331 324 332 336 357 358 0 1 2 1 354 348 347 349 348 346 340 342 342 339 336 336 336 335 334 335 337 339 340 343
340 334 341 343 351 358 345 349 338 340 330 325 329 338 345 347 347 359 355 347 349 349 356 359 359 357 355 352 348 346 346 342 341 339 338 336 335 334 334 337 336 338 342 344
339 342 335 338 351 344 338 342 340 343 347 332 325 329 338 334 337 332 340 347 350 349 352 357 357 356 355 353 350 348 344 341 338 337 336 336 335 334 336 336 339 345 345 344
339 338 334 332 327 346 350 342 332 332 331 334 333 326 344 356 353 350 347 344 349 355 355 354 354 352 347 344 343 341 339 337 336 335 336 337 337 337 341 342 344 345 351 353
341 341 337 337 347 352 343 330 332 339 337 336 329 336 346 339 336 333 343 350 355 353 348 348 347 344 344 344 343 341 340 337 338 339 339 341 344 347 347 345 342 345 354 359
352 345 336 329 328 327 330 334 325 329 326 326 322 325 329 336 338 342 344 352 346 346 346 345 342 343 343 342 342 342 342 345 345 349 353 355 358 359 354 346 341 344 360 3
353 345 342 334 326 326 324 321 322 329 327 330 324 327 337 343 345 346 342 339 338 339 342 341 342 343 342 343 345 346 350 352 354 358 358 6 6 0 353 354 334 344 1 2
337 331 331 331 331 325 318 321 322 327 326 334 1 352 353 352 352 345 344 341 340 344 342 342 343 342 343 345 346 352 357 359 3 7 9 9 9 5 359 354 353 357 1 357
328 327 324 323 328 324 325 332 335 349 347 347 341 349 343 342 346 345 342 343 344 342 341 341 342 344 347 350 354 355 357 4 7 8 8 5 6 2 2 3 1 357 3 11
331 333 331 324 326 329 345 345 354 359 352 353 347 343 346 353 354 345 347 348 348 346 344 345 346 349 354 357 0 2 5 7 6 7 4 9 5 356 357 358 2 2 4 5
335 337 333 332 330 329 329 342 345 343 340 338 343 341 341 345 348 347 354 354 350 350 349 349 353 358 360 5 10 11 7 4 1 3 0 360 358 2 359 359 5 7 3 10
335 344 334 332 327 327 341 343 343 345 328 335 338 343 341 341 336 339 350 352 352 352 353 353 359 7 9 10 11 8 3 3 3 4 3 4 1 2 359 2 0 8 10 10
331 329 325 328 328 336 335 334 329 335 338 343 354 350 349 346 350 355 354 353 353 351 352 359 8 10 14 14 10 6 11 10 10 6 14 -0 359 1 0 360 357 348 351 14
331 330 332 330 329 325 344 345 349 341 345 347 348 349 346 347 351 350 350 350 351 353 2 9 13 15 16 16 23 22 14 6 5 4 354 342 8 1 356 360 346 343 339 1
332 337 336 341 340 3 11 3 353 351 351 348 351 349 347 347 347 349 351 355 0 6 15 23 25 20 23 17 11 15 17 13 9 359 348 344 350 350 348 352 350 351 344 9
345 348 350 351 8 14 13 358 355 356 355 356 350 350 349 349 351 355 2 4 8 21 31 33 33 25 14 7 6 17 3 13 12 11 346 324 350 347 348 354 0 352 1 14
349 356 352 9 12 8 4 3 360 356 359 355 353 354 356 359 360 5 9 20 30 36 40 42 34 19 14 32 25 30 33 29 6 8 294 344 343 16 10 4 358 19 28 43
344 340 339 339 355 7 5 3 2 3 359 353 357 0 3 5 13 16 25 36 44 45 50 39 35 34 37 35 31 23 34 22 12 12 346 4 356 358 11 20 24 76 75 336